Location: Agrigento
(37.3170°N, 13.5670°E)
Time: 09:59:46
(UTC+02:00)

ISS - Visible Passes

Search period start: 08 May 2021 00:00
Search period end: 18 May 2021 00:00
Orbit: 418 x 421 km, 51.6° (Epoch: 08 May)

Date Brightness Start Highest point End Pass type
(mag) Time Alt. Az. Time Alt. Az. Time Alt. Az.
08 May -0.4 02:49:24 10° N 02:49:24 10° N 02:49:36 10° N visible
09 May -0.6 05:15:55 10° N 05:17:28 13° NNE 05:19:02 10° NE visible
11 May -1.1 05:17:01 10° NNW 05:19:50 23° NNE 05:22:37 10° E visible
12 May -0.7 04:29:55 10° NNW 04:32:13 17° NNE 04:34:30 10° ENE visible
13 May -0.4 03:42:58 10° N 03:44:33 13° NNE 03:46:08 10° NE visible
13 May -3.1 05:18:35 10° NW 05:21:56 61° NE 05:25:16 10° ESE visible
14 May -2.0 04:31:18 10° NW 04:34:27 36° NE 04:37:35 10° ESE visible
14 May -3.2 21:13:09 10° SSW 21:16:14 34° SE 21:19:19 10° ENE visible
14 May -1.4 22:50:14 10° W 22:53:04 25° NNW 22:55:40 11° NNE visible
15 May -1.2 03:44:05 10° NNW 03:46:53 24° NNE 03:49:41 10° E visible
15 May -3.2 05:20:36 10° WNW 05:23:47 38° SW 05:26:56 10° SSE visible
15 May -2.3 22:02:21 10° WSW 22:05:32 38° NW 22:08:43 10° NE visible
15 May -0.1 23:42:33 10° NNW 23:43:06 10° NNW 23:43:39 10° N visible
16 May -0.7 02:56:59 10° NNW 02:59:17 17° NNE 03:01:34 10° ENE visible
16 May -3.9 04:33:02 10° NW 04:36:25 73° SW 04:39:46 10° SE visible
16 May -3.4 21:14:43 10° WSW 21:18:03 67° NW 21:21:25 10° NE visible
16 May -0.4 22:53:42 10° NW 22:55:23 13° NNW 22:57:05 10° N visible
17 May -0.4 02:10:01 10° N 02:11:36 13° NNE 02:13:12 10° NE visible
17 May -3.3 03:45:38 10° NW 03:48:59 62° NE 03:52:19 10° ESE visible
17 May -1.8 05:24:03 10° WSW 05:25:23 12° SW 05:26:43 10° SSW visible
17 May -0.7 22:05:22 10° WNW 22:07:44 18° NNW 22:10:06 10° NNE visible
